User: anonymous   Login
Location: Unspecified
(0.0000°N, 0.0000°E)
Time: 05:16:18
(UTC+00:00)
Language:

GEOEYE 1 - Orbit

View from above orbital plane
View from above orbital plane
View from above satellite
View from above satellite

Ground track
Ground track

The orbit data is extracted from the following two-line orbital elements,

1 33331U 08042A   17086.79937295 +.00000120 +00000-0 +31855-4 0  9999
2 33331 098.1165 163.1862 0009520 155.8877 204.2768 14.64085814457195
Epoch (UTC): 27 March 2017 19:11:05
Eccentricity: 0.0009520
inclination: 98.1165°
perigee height: 673 km
apogee height: 687 km
right ascension of ascending node: 163.1862°
argument of perigee: 155.8877°
revolutions per day: 14.64085814
mean anomaly at epoch: 204.2768°
orbit number at epoch: 45719

The dashed part of the orbit path shows where the satellite is in the earth's shadow,  

DLR